Location: Biharia
(46.4333°N, 22.8000°E)
Time: 00:16:25
(UTC+00:00)

ATLAS 5 CENTAUR R/B - Pass Details

Date: 16 October 2021
Orbit: 497 x 1159 km, 63.4° (Epoch: 25 November)

Event Time Altitude Azimuth Distance (km) Brightness Sun altitude
Rises 16:57:29 0° 195° (SSW) 2,578 4.9 -14.0°
Reaches altitude 10° 16:59:40 10° 186° (S) 1,722 3.9 -14.4°
Maximum altitude 17:03:09 35° 119° (ESE) 872 1.9 -15.0°
Enters shadow 17:04:30 27° 79° (E) 1,070 2.2 -15.3°
